TimeCDT,TemperatureF,Dew PointF,Humidity,Sea Level PressureIn,VisibilityMPH,Wind Direction,Wind SpeedMPH,Gust SpeedMPH,PrecipitationIn,Events,Conditions,WindDirDegrees,DateUTC
12:15 AM,30.2,26.6,86,29.97,10.0,Calm,Calm,-,N/A,,Clear,0,2012-11-01 05:15:00
12:35 AM,30.2,26.6,86,29.97,10.0,Calm,Calm,-,N/A,,Clear,0,2012-11-01 05:35:00
12:55 AM,28.4,24.8,86,29.98,10.0,Calm,Calm,-,N/A,,Clear,0,2012-11-01 05:55:00
1:15 AM,28.4,24.8,86,29.97,10.0,Calm,Calm,-,N/A,,Clear,0,2012-11-01 06:15:00
1:35 AM,28.4,24.8,86,29.97,10.0,Calm,Calm,-,N/A,,Clear,0,2012-11-01 06:35:00
1:55 AM,28.4,24.8,86,29.97,10.0,Calm,Calm,-,N/A,,Clear,0,2012-11-01 06:55:00
2:15 AM,28.4,23.0,80,29.97,10.0,Calm,Calm,-,N/A,,Clear,0,2012-11-01 07:15:00
2:35 AM,28.4,24.8,86,29.98,10.0,Calm,Calm,-,N/A,,Clear,0,2012-11-01 07:35:00
2:55 AM,28.4,24.8,86,29.98,10.0,Calm,Calm,-,N/A,,Clear,0,2012-11-01 07:55:00
3:15 AM,28.4,24.8,86,29.98,10.0,Calm,Calm,-,N/A,,Clear,0,2012-11-01 08:15:00
3:35 AM,28.4,24.8,86,29.98,10.0,Calm,Calm,-,N/A,,Clear,0,2012-11-01 08:35:00
3:55 AM,26.6,23.0,86,29.98,10.0,Calm,Calm,-,N/A,,Clear,0,2012-11-01 08:55:00
4:15 AM,28.4,24.8,86,29.99,10.0,Calm,Calm,-,N/A,,Clear,0,2012-11-01 09:15:00
4:35 AM,26.6,21.2,80,29.98,10.0,Calm,Calm,-,N/A,,Clear,0,2012-11-01 09:35:00
4:55 AM,28.4,23.0,80,29.99,10.0,Calm,Calm,-,N/A,,Clear,0,2012-11-01 09:55:00
5:15 AM,28.4,26.6,93,29.99,10.0,Calm,Calm,-,N/A,,Clear,0,2012-11-01 10:15:00
5:35 AM,28.4,24.8,86,29.99,10.0,Calm,Calm,-,N/A,,Clear,0,2012-11-01 10:35:00
5:55 AM,28.4,24.8,86,29.99,10.0,Calm,Calm,-,N/A,,Clear,0,2012-11-01 10:55:00
6:15 AM,28.4,26.6,93,29.99,10.0,Calm,Calm,-,N/A,,Clear,0,2012-11-01 11:15:00
6:35 AM,30.2,26.6,86,30.00,10.0,Calm,Calm,-,N/A,,Clear,0,2012-11-01 11:35:00
6:55 AM,30.2,24.8,80,30.00,10.0,Calm,Calm,-,N/A,,Clear,0,2012-11-01 11:55:00
7:15 AM,30.2,26.6,86,30.00,10.0,WSW,3.5,-,N/A,,Clear,240,2012-11-01 12:15:00
7:35 AM,30.2,26.6,86,30.00,10.0,Calm,Calm,-,N/A,,Partly Cloudy,0,2012-11-01 12:35:00
8:35 AM,33.8,30.2,87,30.02,10.0,Calm,Calm,-,N/A,,Overcast,0,2012-11-01 13:35:00
8:55 AM,37.4,30.2,75,30.02,10.0,WSW,3.5,-,N/A,,Mostly Cloudy,240,2012-11-01 13:55:00
9:15 AM,41.0,28.4,61,30.02,10.0,West,5.8,-,N/A,,Clear,260,2012-11-01 14:15:00
9:35 AM,42.8,28.4,57,30.02,10.0,WSW,5.8,-,N/A,,Clear,250,2012-11-01 14:35:00
10:15 AM,46.4,28.4,50,30.03,10.0,West,5.8,-,N/A,,Clear,270,2012-11-01 15:15:00
10:35 AM,48.2,28.4,46,30.04,10.0,West,4.6,-,N/A,,Clear,280,2012-11-01 15:35:00
10:55 AM,51.8,28.4,41,30.02,10.0,SW,6.9,-,N/A,,Partly Cloudy,230,2012-11-01 15:55:00
11:15 AM,51.8,26.6,38,30.03,10.0,West,8.1,-,N/A,,Mostly Cloudy,270,2012-11-01 16:15:00
11:35 AM,53.6,26.6,35,30.03,10.0,West,9.2,-,N/A,,Partly Cloudy,270,2012-11-01 16:35:00
11:55 AM,53.6,28.4,38,30.03,10.0,WNW,4.6,-,N/A,,Scattered Clouds,290,2012-11-01 16:55:00
12:15 PM,55.4,28.4,36,30.02,10.0,WNW,5.8,-,N/A,,Overcast,300,2012-11-01 17:15:00
12:35 PM,55.4,28.4,36,30.00,10.0,WNW,3.5,-,N/A,,Overcast,300,2012-11-01 17:35:00
12:55 PM,55.4,28.4,36,29.99,10.0,NW,4.6,-,N/A,,Mostly Cloudy,310,2012-11-01 17:55:00
1:15 PM,57.2,30.2,36,29.99,10.0,NNW,5.8,-,N/A,,Overcast,330,2012-11-01 18:15:00
1:35 PM,57.2,30.2,36,29.98,10.0,WSW,9.2,-,N/A,,Overcast,250,2012-11-01 18:35:00
2:15 PM,57.2,32.0,38,29.96,10.0,West,4.6,-,N/A,,Mostly Cloudy,280,2012-11-01 19:15:00
2:35 PM,57.2,30.2,36,29.95,10.0,WSW,8.1,-,N/A,,Mostly Cloudy,250,2012-11-01 19:35:00
2:55 PM,57.2,33.8,41,29.95,10.0,SW,6.9,-,N/A,,Mostly Cloudy,230,2012-11-01 19:55:00
3:15 PM,57.2,33.8,41,29.95,10.0,WSW,6.9,-,N/A,,Overcast,250,2012-11-01 20:15:00
3:35 PM,57.2,33.8,41,29.94,10.0,SW,6.9,-,N/A,,Overcast,230,2012-11-01 20:35:00
3:55 PM,57.2,33.8,41,29.94,10.0,WSW,6.9,-,N/A,,Overcast,240,2012-11-01 20:55:00
4:15 PM,57.2,33.8,41,29.93,10.0,WSW,4.6,-,N/A,,Overcast,240,2012-11-01 21:15:00
4:35 PM,55.4,37.4,51,29.93,10.0,SW,6.9,-,N/A,,Overcast,230,2012-11-01 21:35:00
4:55 PM,55.4,35.6,47,29.93,10.0,SW,4.6,-,N/A,,Overcast,230,2012-11-01 21:55:00
5:15 PM,53.6,37.4,54,29.92,10.0,SW,3.5,-,N/A,,Overcast,220,2012-11-01 22:15:00
5:35 PM,53.6,37.4,54,29.91,10.0,Calm,Calm,-,N/A,,Overcast,0,2012-11-01 22:35:00
5:55 PM,53.6,37.4,54,29.91,10.0,Calm,Calm,-,N/A,,Overcast,0,2012-11-01 22:55:00
6:15 PM,53.6,35.6,51,29.91,10.0,Calm,Calm,-,N/A,,Overcast,0,2012-11-01 23:15:00
6:35 PM,51.8,37.4,58,29.91,10.0,Calm,Calm,-,N/A,,Overcast,0,2012-11-01 23:35:00
7:15 PM,51.8,37.4,58,29.91,10.0,Calm,Calm,-,N/A,,Overcast,0,2012-11-02 00:15:00
7:35 PM,51.8,37.4,58,29.91,10.0,Calm,Calm,-,N/A,,Overcast,0,2012-11-02 00:35:00
7:55 PM,50.0,37.4,62,29.91,9.0,Calm,Calm,-,N/A,,Overcast,0,2012-11-02 00:55:00
8:15 PM,48.2,39.2,71,29.91,5.0,Calm,Calm,-,N/A,,Overcast,0,2012-11-02 01:15:00
8:35 PM,46.4,37.4,71,29.91,10.0,Calm,Calm,-,N/A,,Scattered Clouds,0,2012-11-02 01:35:00
8:55 PM,46.4,35.6,66,29.91,10.0,Calm,Calm,-,N/A,,Clear,0,2012-11-02 01:55:00
9:15 PM,46.4,37.4,71,29.91,10.0,Calm,Calm,-,N/A,,Clear,0,2012-11-02 02:15:00
9:35 PM,44.6,37.4,76,29.91,10.0,Calm,Calm,-,N/A,,Clear,0,2012-11-02 02:35:00
9:55 PM,42.8,37.4,81,29.91,10.0,Calm,Calm,-,N/A,,Clear,0,2012-11-02 02:55:00
10:15 PM,42.8,37.4,81,29.91,9.0,Calm,Calm,-,N/A,,Clear,0,2012-11-02 03:15:00
10:35 PM,41.0,35.6,81,29.90,2.5,Calm,Calm,-,N/A,,Clear,0,2012-11-02 03:35:00
10:55 PM,41.0,35.6,81,29.89,2.0,Calm,Calm,-,N/A,,Clear,0,2012-11-02 03:55:00
11:15 PM,39.2,33.8,81,29.89,5.0,Calm,Calm,-,N/A,,Clear,0,2012-11-02 04:15:00
11:35 PM,39.2,35.6,87,29.89,5.0,Calm,Calm,-,N/A,,Clear,0,2012-11-02 04:35:00
11:55 PM,37.4,33.8,87,29.89,10.0,Calm,Calm,-,N/A,,Clear,0,2012-11-02 04:55:00